Vorticity
nan nan nan nan nan nan nan nan nan nan nan nan nan nan nan nan nan nan nan nan nan nan nan nan nan nan nan nan nan nan nan nan nan nan nan nan nan nan nan nan nan nan nan
nan 11 10 8 9 8 8 9 9 8 10 10 10 10 10 10 10 9 8 8 9 8 8 8 8 8 8 9 9 11 12 13 11 9 8 8 8 8 8 7 8 8 nan
nan 8 8 9 9 9 9 9 8 9 8 9 11 10 9 9 10 10 9 9 9 9 10 9 8 7 7 10 10 12 12 12 12 11 10 9 8 8 8 7 8 8 nan
nan 12 10 9 9 10 10 10 9 9 9 8 8 9 9 10 10 11 10 8 10 9 11 11 9 9 10 9 9 9 10 9 10 10 10 10 9 9 9 7 8 7 nan
nan 10 10 12 12 11 11 10 10 9 9 9 9 9 8 9 9 10 11 10 9 9 9 10 10 12 12 12 11 10 9 8 9 9 9 10 10 8 9 9 8 9 nan
nan 11 12 10 11 13 12 12 11 9 10 9 8 10 9 10 12 10 8 10 9 10 8 9 11 10 10 12 14 14 13 12 9 9 9 10 9 11 9 9 10 11 nan
nan 10 11 12 12 15 16 12 11 10 10 10 10 10 10 11 12 14 9 9 11 9 9 8 10 9 8 6 6 8 12 14 13 12 10 9 11 12 9 9 10 9 nan
nan 10 7 9 9 10 14 16 12 16 16 13 10 10 11 13 15 13 11 7 11 11 10 9 9 9 8 8 5 4 6 9 13 14 13 12 13 14 12 12 9 9 nan
nan 7 9 10 10 9 8 12 11 6 9 11 18 12 9 13 16 13 9 8 11 10 9 11 9 11 11 6 5 6 6 6 9 14 13 11 13 14 12 8 7 10 nan
nan 11 12 10 10 10 14 11 11 10 3 2 4 16 18 14 18 10 4 9 10 9 10 13 11 11 10 5 6 6 6 9 9 7 7 9 11 8 8 10 10 8 nan
nan 12 12 11 14 16 12 13 8 4 7 10 9 13 14 16 18 13 5 6 9 10 9 8 13 15 9 6 5 8 13 12 7 7 7 8 7 9 9 9 11 9 nan
nan 12 11 13 13 15 19 12 9 12 10 13 18 12 12 15 19 14 8 8 11 9 9 8 17 16 8 6 6 12 11 6 7 8 8 8 9 10 11 11 11 12 nan
nan 11 10 11 13 14 16 17 13 12 9 12 18 19 15 13 16 17 9 12 11 9 15 15 15 12 6 5 10 10 3 5 8 8 9 9 11 11 10 9 10 9 nan
nan 12 11 10 11 14 12 13 14 13 10 11 8 13 13 11 12 14 11 11 7 11 15 14 14 10 6 5 8 8 7 9 8 9 9 10 10 10 8 9 9 7 nan
nan 11 12 11 12 11 10 11 13 12 14 15 12 10 12 10 6 10 16 12 11 12 8 9 11 11 11 10 9 8 10 9 8 10 10 9 9 9 9 10 10 9 nan
nan 11 11 10 11 12 10 5 8 10 11 9 12 15 14 6 6 10 17 19 18 6 3 11 11 12 11 11 10 9 11 10 9 9 11 10 10 9 10 9 11 11 nan
nan 10 12 11 11 11 13 12 6 4 6 9 14 14 12 13 14 14 19 25 11 -2 8 13 11 10 11 12 11 10 11 11 10 11 11 10 9 10 10 9 10 11 nan
nan 13 13 12 11 11 12 14 15 11 10 10 6 5 10 20 22 19 10 8 7 8 15 15 14 13 12 12 11 9 10 12 10 10 10 11 10 10 9 10 10 10 nan
nan 12 11 13 12 12 12 13 14 13 10 9 10 7 8 11 13 12 8 11 13 11 10 13 13 12 11 12 13 12 10 10 11 11 10 11 10 9 9 10 10 10 nan
nan 11 14 12 11 12 13 13 13 12 11 10 10 9 9 12 11 10 13 13 12 13 12 12 11 12 13 12 10 10 11 11 11 11 10 11 12 11 10 10 10 10 nan
nan 10 13 15 12 12 12 12 12 13 12 10 9 10 16 15 10 10 10 10 11 11 13 13 13 12 12 11 12 11 10 11 11 10 11 12 12 12 11 10 11 10 nan
nan 12 12 12 11 11 12 13 13 12 12 11 10 7 15 17 11 10 10 10 11 11 11 12 15 15 13 12 12 11 11 11 10 10 12 11 10 11 12 11 10 11 nan
nan 13 13 13 11 12 13 12 12 13 12 11 12 11 11 11 11 12 11 11 11 11 12 13 13 12 14 18 15 13 13 13 12 11 11 10 11 12 11 10 10 10 nan
nan 12 14 13 12 12 12 12 12 12 13 12 12 12 12 12 11 11 11 12 12 11 12 12 11 11 12 12 13 16 18 14 12 13 11 12 11 11 11 12 13 10 nan
nan 13 14 12 13 13 12 12 12 10 12 12 12 12 12 12 11 11 12 12 11 11 12 12 11 11 12 12 11 9 9 14 21 12 7 13 15 13 11 12 12 13 nan
nan nan nan nan nan nan nan nan nan nan nan nan nan nan nan nan nan nan nan nan nan nan nan nan nan nan nan nan nan nan nan nan nan nan nan nan nan nan nan nan nan nan nan
CAPE
36 62 116 87 92 58 66 101 90 33 0 0 114 810 1058 1963 1812 1038 390 0 0 0 0 0 0 0 0 0 0 0 0 0 0 6 4 4 16 6 0 0 0 0 0
243 420 587 649 643 555 553 480 241 107 106 123 199 798 1081 1362 1631 1092 443 0 0 0 0 0 0 0 0 0 0 0 0 0 0 3 1 4 11 2 0 0 0 0 0
569 831 818 1016 1233 1142 1071 962 610 476 219 119 435 771 882 1228 1494 1040 528 146 0 0 0 0 0 0 0 0 0 0 0 0 0 0 3 3 9 3 0 0 0 0 0
1368 1498 1493 1417 1344 1410 1406 1221 988 767 568 297 93 452 835 813 1083 1254 591 219 0 0 0 0 0 0 0 0 0 0 0 0 0 0 1 5 19 4 0 0 0 0 0
0 0 71 771 1568 1645 1476 1397 1265 1129 945 672 348 172 377 727 695 942 924 298 0 0 0 0 0 0 0 0 0 0 0 0 0 0 0 1 26 21 2 2 0 0 0
636 790 695 1236 1323 1392 1634 1545 1394 1398 1340 1099 867 678 376 507 577 460 712 72 0 0 0 0 0 0 0 0 0 0 0 0 0 0 0 14 8 0 0 0 0 0 1
574 692 1176 1278 1200 1575 1659 1602 1622 1651 1667 1538 1480 1250 873 495 465 209 70 0 0 0 0 0 0 0 0 0 0 0 0 0 0 0 0 0 11 5 0 1 0 0 5
127 110 180 421 615 90 1194 1879 1690 1864 1797 1745 1750 1705 1531 937 349 22 0 0 0 0 0 0 0 0 0 0 0 0 0 0 0 0 0 0 5 0 0 0 0 0 0
25 56 129 186 249 242 103 394 576 823 323 467 1365 1625 1607 1162 184 0 0 0 0 0 0 0 0 0 0 0 0 0 0 0 0 0 0 0 0 0 0 0 0 0 0
1 13 109 177 281 393 469 123 16 31 47 31 0 490 1508 1635 28 1 0 0 0 0 0 0 0 0 0 0 0 0 0 0 0 0 0 0 0 0 0 0 0 0 0
1 48 198 231 344 646 880 1 0 4 5 59 91 3 1309 1294 8 1 0 0 0 0 0 0 0 0 0 0 0 0 0 0 0 0 1 4 4 5 0 0 0 0 0
2 109 105 104 263 628 890 196 0 0 78 119 119 5 600 701 3 1 0 0 0 0 0 0 0 0 0 0 0 0 0 0 0 0 0 2 3 0 2 0 0 0 0
1 45 31 64 173 188 260 1095 1166 867 926 1044 704 1040 748 194 4 1 0 0 0 0 0 0 0 0 0 0 0 0 0 0 0 0 0 1 3 2 2 2 3 2 3
2 2 6 60 43 1 1 31 74 54 132 108 259 201 200 238 30 3 0 1 0 0 0 0 0 0 0 0 0 0 0 0 0 0 0 2 6 5 2 1 1 1 0
2 1 2 3 14 11 2 2 5 4 2 1 1 2 30 131 3 1 1 1 2 0 1 0 0 0 1 0 0 0 0 0 0 0 0 1 3 3 3 1 2 1 1
3 4 1 2 3 20 1 1 0 1 1 0 0 1 3 2 1 1 2 2 0 0 0 0 0 1 0 0 0 0 0 1 0 0 0 0 0 1 4 4 2 5 2
1 2 1 1 4 4 2 5 1 3 0 1 1 1 1 1 1 1 1 2 2 0 0 0 0 0 0 0 0 0 0 0 0 0 0 0 0 0 1 4 3 6 10
0 0 0 4 4 3 3 2 4 2 3 4 0 1 2 2 0 1 1 0 0 0 0 1 0 0 0 0 0 0 0 0 0 0 0 0 0 0 1 2 3 4 5
0 0 0 4 1 1 2 2 1 2 2 1 0 0 0 1 1 1 0 1 1 2 0 0 0 0 7 0 0 0 0 0 0 0 0 0 0 0 0 0 0 0 0
0 0 0 2 0 1 2 2 3 2 1 1 1 1 0 1 3 2 4 3 3 0 0 1 1 1 1 0 0 0 0 0 0 0 0 0 0 0 0 0 0 0 1
1 2 1 3 1 1 2 3 3 5 6 3 3 1 1 1 2 2 3 2 2 3 3 4 1 1 2 2 0 0 0 0 0 0 0 0 0 0 0 0 0 0 0
0 5 5 4 3 1 1 2 2 2 2 2 3 1 0 1 1 2 3 3 3 2 2 2 2 5 2 1 0 0 0 0 0 0 0 0 0 0 0 0 0 0 0
0 1 4 5 5 4 1 1 2 2 2 2 2 1 1 1 2 3 3 3 3 3 2 2 1 1 1 3 0 0 0 0 0 0 0 0 0 0 0 0 0 0 0
0 1 2 3 3 5 5 3 3 2 6 5 3 1 2 3 3 3 3 3 3 3 2 2 2 1 1 1 1 0 0 0 0 0 0 2 0 0 0 0 0 0 0
0 2 3 3 4 15 19 10 9 3 3 5 11 4 2 5 5 2 5 3 3 2 2 2 2 2 1 0 0 0 1 2 0 0 0 0 0 0 0 0 0 0 0
0 1 3 4 4 7 9 15 13 9 8 6 2 2 2 3 3 1 0 0 0 0 0 1 1 1 1 1 0 0 1 1 1 0 0 0 0 0 0 0 0 0 0